TimeEST,TemperatureF,Dew PointF,Humidity,Sea Level PressureIn,VisibilityMPH,Wind Direction,Wind SpeedMPH,Gust SpeedMPH,PrecipitationIn,Events,Conditions,WindDirDegrees,DateUTC
12:53 AM,63.0,54.0,72,29.86,10.0,SSW,15.0,25.3,N/A,,Scattered Clouds,210,2012-12-04 05:53:00
1:30 AM,64.4,53.6,68,29.86,10.0,SSW,15.0,23.0,N/A,,Overcast,210,2012-12-04 06:30:00
1:40 AM,64.4,53.6,68,29.86,10.0,SW,13.8,23.0,N/A,,Overcast,220,2012-12-04 06:40:00
1:53 AM,64.0,54.0,70,29.86,10.0,SSW,11.5,23.0,N/A,,Overcast,210,2012-12-04 06:53:00
2:53 AM,64.0,55.0,73,29.87,10.0,SW,15.0,27.6,N/A,,Overcast,220,2012-12-04 07:53:00
3:38 AM,64.4,55.4,73,29.87,10.0,SW,17.3,24.2,N/A,,Overcast,220,2012-12-04 08:38:00
3:53 AM,64.0,55.0,73,29.87,10.0,SW,11.5,19.6,N/A,,Overcast,220,2012-12-04 08:53:00
4:22 AM,62.6,55.4,77,29.87,10.0,SW,15.0,27.6,0.00,,Overcast,230,2012-12-04 09:22:00
4:53 AM,62.1,55.9,80,29.86,10.0,SW,11.5,18.4,0.00,,Overcast,220,2012-12-04 09:53:00
5:39 AM,60.8,55.4,82,29.87,9.0,SW,9.2,-,0.00,Rain,Light Rain,230,2012-12-04 10:39:00
5:53 AM,59.0,55.0,87,29.88,3.0,West,10.4,19.6,0.09,Rain,Light Rain,270,2012-12-04 10:53:00
6:53 AM,55.0,51.1,86,29.91,6.0,WNW,12.7,-,0.00,Rain,Light Rain,290,2012-12-04 11:53:00
7:09 AM,55.4,51.8,88,29.93,5.0,West,12.7,-,0.01,Rain,Light Rain,270,2012-12-04 12:09:00
7:53 AM,53.1,50.0,89,29.95,4.0,West,10.4,-,0.09,Rain,Light Rain,280,2012-12-04 12:53:00
8:53 AM,50.0,46.0,86,29.99,4.0,West,10.4,-,0.06,Rain,Light Rain,270,2012-12-04 13:53:00
9:53 AM,50.0,45.0,83,29.98,9.0,West,5.8,-,0.03,,Overcast,260,2012-12-04 14:53:00
10:53 AM,50.0,42.1,74,29.99,10.0,WSW,9.2,-,N/A,,Mostly Cloudy,250,2012-12-04 15:53:00
11:53 AM,50.0,39.9,68,29.98,10.0,West,12.7,-,N/A,,Overcast,270,2012-12-04 16:53:00
12:53 PM,50.0,37.9,63,29.96,10.0,West,10.4,-,N/A,,Overcast,260,2012-12-04 17:53:00
1:53 PM,50.0,37.0,61,29.97,10.0,West,9.2,-,N/A,,Clear,270,2012-12-04 18:53:00
2:53 PM,52.0,37.0,57,29.97,10.0,West,15.0,19.6,N/A,,Clear,270,2012-12-04 19:53:00
3:53 PM,51.1,36.0,56,29.98,10.0,West,10.4,-,N/A,,Clear,260,2012-12-04 20:53:00
4:53 PM,48.0,35.1,61,29.99,10.0,WSW,9.2,-,N/A,,Clear,250,2012-12-04 21:53:00
5:53 PM,46.9,33.1,59,30.01,10.0,WSW,9.2,-,N/A,,Clear,250,2012-12-04 22:53:00
6:53 PM,46.0,30.9,56,30.03,10.0,West,16.1,21.9,N/A,,Clear,260,2012-12-04 23:53:00
7:53 PM,45.0,30.9,58,30.04,10.0,West,12.7,-,N/A,,Clear,270,2012-12-05 00:53:00
8:53 PM,44.1,32.0,63,30.06,10.0,West,11.5,-,N/A,,Clear,260,2012-12-05 01:53:00
9:53 PM,42.1,32.0,67,30.08,10.0,West,11.5,-,N/A,,Clear,280,2012-12-05 02:53:00
10:53 PM,39.9,30.0,68,30.11,10.0,WNW,12.7,-,N/A,,Clear,300,2012-12-05 03:53:00
11:53 PM,37.9,28.0,68,30.13,10.0,WNW,10.4,-,N/A,,Clear,300,2012-12-05 04:53:00